Regional Weather Roundup
Issued by NWS

Home | Current Version | Previous Version | Text Only | Print | Product List | Glossary Off
Versions: 1 2 3 4 5 6 7 8 9 10 11 12 13 14 15 16 17 18 19 20 21 22 23 24 25 26 27 28 29 30 31 32 33 34 35 36 37 38 39 40 41 42 43 44 45 46 47 48 49 50

637
ASUS43 KIND 280859
RWRIN

WEATHER ROUNDUP FOR INDIANA
NATIONAL WEATHER SERVICE INDIANAPOLIS IN
500 AM EDT FRI APR 28 2017

NOTE: "FAIR" INDICATES FEW OR NO CLOUDS BELOW 12,000 FEET WITH NO
SIGNIFICANT WEATHER AND/OR OBSTRUCTIONS TO VISIBILITY.

* - STATION DOES NOT REPORT WEATHER SUCH AS PRECIPITATION OR FOG.

+ - STATION NOT QUALITY CONTROLLED BY THE NATIONAL WEATHER SERVICE.
    USE DATA WITH CAUTION...ESPECIALLY DEWPOINT AND RELATIVE
    HUMIDITY OBSERVATIONS.

INZ001>003-010>013-019-020-281000-
NORTHWEST INDIANA

CITY           SKY/WX    TMP DP  RH WIND       PRES   REMARKS
MONTICELLO +   CLOUDY    46  40  80 E6        29.86F
RENSSELAER +   PTCLDY    45  41  87 E5        29.86F

$$

LMZ046-743>745-281000-
SOUTHERN LAKE MICHIGAN

STATION/POSITION TIME  TEMP    WIND        PRES    WAVE
                       AIR SEA DIR/SP/G            HT
                 (UTC) (F)     (DEG/KT/KT) (MB)    (FT)
BURNS HARBOR     0840   47     190/ 10/ 14 1012.5S
MICHIGAN CITY    0830   44     210/  2/  3   N/A
5NW MICH CITY    0850   45 47                N/A     1

$$

INZ004-005-014>016-021>024-281000-
NORTH CENTRAL INDIANA

CITY           SKY/WX    TMP DP  RH WIND       PRES   REMARKS
GOSHEN         PTCLDY    44  38  79 S7        29.91R
SOUTH BEND     CLEAR     41  39  93 S6        29.91R

$$

INZ006>009-017-018-025>027-281000-
NORTHEAST INDIANA

CITY           SKY/WX    TMP DP  RH WIND       PRES   REMARKS
ANGOLA *+      CLEAR     43  39  87 SW3       29.92R
FORT WAYNE     MOCLDY    43  38  82 S6        29.94R
KENDALLVILLE + MOCLDY    42  38  85 SW5       29.93R

$$

INZ028-029-035-036-043>045-051>053-281000-
WEST CENTRAL INDIANA

CITY           SKY/WX    TMP DP  RH WIND       PRES   REMARKS
CRAWFORDSVL +  CLOUDY    44  44 100 E6        29.87F
GREENCASTLE +  CLOUDY    45  43  93 SE6       29.90S
LAFAYETTE      CLOUDY    44  41  89 S6        29.86F
TERRE HAUTE    CLOUDY    48  45  89 SE5       29.90R

$$

INZ030>032-037>040-046>048-054>057-064-065-281000-
CENTRAL INDIANA

CITY           SKY/WX    TMP DP  RH WIND       PRES   REMARKS
INDIANAPOLIS   CLOUDY    48  43  82 E7        29.90F
-EAGLE CREEK   CLOUDY    48  43  82 E6        29.90F
KOKOMO +       PTCLDY    45  43  93 E6        29.92F
SHELBYVILLE    CLOUDY    46  42  86 E6        29.92F

$$

INZ033-034-041-042-049-050-058-059-281000-
EAST CENTRAL INDIANA

CITY           SKY/WX    TMP DP  RH WIND       PRES   REMARKS
MUNCIE         PTCLDY    45  42  89 E3        29.94S
RICHMOND +     CLOUDY    45  41  87 N3        29.97R

$$

INZ060-061-067>069-081>083-085>088-281000-
SOUTHWEST INDIANA

CITY           SKY/WX    TMP DP  RH WIND       PRES   REMARKS
EVANSVILLE     CLOUDY    51  47  86 E3        29.91R
HUNTINGBURG *+ PTCLDY    49  47  93 E5        29.91F

$$

INZ062-063-066-070>080-084-089>092-281000-
SOUTH CENTRAL AND SOUTHEAST INDIANA

CITY           SKY/WX    TMP DP  RH WIND       PRES   REMARKS
BLOOMINGTON    PTCLDY    44  41  89 SE3       29.91F
MADISON *+     PTCLDY    46  45  93 CALM      29.96F
SEYMOUR +      CLEAR     45  45 100 SE3       29.94S FOG

$$





USA.gov is the U.S. government's official web portal to all federal, state and local government web resources and services.